Terug naar catalogus

SL-14 DEB

ActiefPO
NORAD 45276·DEBRIS·🇷🇺 Russia

Gelanceerd Aug 15, 1991 vanaf Plesetsk Cosmodrome

Loading…

Volgende Passages (komende 24 uur)

TLE

VersSource: Space-Track

Epoch: Sep 14, 2026, 09:56 UTC

1 45276U 91056N   26257.41403204  .00000431  00000-0  90325-3 0  9995
2 45276  82.5857  52.4943 0048084  84.6924 275.9689 13.29009726318967

Volg SL-14 DEB in realtime met AllMySat

Download on the App Store